LTAI

Antalya Airport

Airport
ICAO code
LTAI
IATA Code
AYT
Summary
ICAO Region
EUR
ICAO Territory
Location

Antayla,

Serving
Antayla
Elevation
177 ft
Coordinates
36° 54' 3" N , 30° 48' 4" E
KCC
Metar
Observation
LTAI 271620Z 32003KT 9999 SCT030 BKN100 13/07 Q1017 NOSIG
Station
Antalya
Date/Time
2022-11-27 16:20:00
Wind direction
320°
Wind speed
03 kts
Lowest cloud amount
scattered clouds
Temperature
13°C
Dew point
7°C
Humidity
66%
QNH
1017 hPa
Weather condition
n/a

Description

International airport serving Antalya and surrounding region in Turkey.

Climatology

Dry-summer subtropical ”Mediterranean" climate (Köppen climate classification Csa) - characterized by hot, dry summers and mild winters. During the summer, subtropical high pressure cells dominate, making rainfall unlikely except for the occasional thunderstorm. In the winter, periodic storms bring rain.

Runways

Designator Length Width Surface Rops
18R/36L 2990 45 concrete Yes/Yes
18C/36C 3400 45 concrete Yes/Yes
18L/36R 3400 45 CON Yes/Yes

Airport map

Aerial View

SKYbrary Partners:

Safety knowledge contributed by: